Simultaneous Nadir Overpasses (SNOs) Predictions

Prediction of SNOs between GOES-15 and METOP-B Satellite Orbit:

Table of predicted SNOs for the next 14.0 days since TLE Epoch: 8/20/2022
Index Date Time (GOES-15) GOES-15 Lat,Lon METOP-B Lat,Lon Distance(km) Time Diff (sec)
1 08/20/2022 05:55:02 0.09,-128.01 0.57,-126.03 226.92 80
2 08/21/2022 18:11:13 -0.13,-128.09 0.43,-130.59 285.61 80
3 08/22/2022 17:53:13 -0.11,-128.08 -0.65,-125.59 283.56 80
4 08/24/2022 06:09:32 0.14,-127.98 -0.37,-130.18 251.28 80
5 08/25/2022 05:51:32 0.12,-127.97 0.72,-125.18 317.16 80
6 08/26/2022 18:07:44 -0.16,-128.03 0.22,-129.76 196.57 80
7 08/27/2022 17:49:43 -0.14,-128.02 -0.87,-124.76 372.17 80
8 08/29/2022 06:06:03 0.17,-127.93 -0.15,-129.35 162.60 80
9 08/30/2022 05:48:02 0.15,-127.91 0.94,-124.35 405.43 80
10 08/31/2022 18:04:14 -0.19,-127.96 0.04,-128.92 109.42 80
11 09/01/2022 17:46:13 -0.16,-127.94 -1.05,-123.91 458.73 80
